Hourly Data Report for October 28, 2017

All times are specified in Local Standard Time (LST). Add 1 hour to adjust for Daylight Saving Time where and when it is observed.

POWELL RIVER
BRITISH COLUMBIA

49°50'04.400" N
124°29'48.500" W
125.00 m
1046392
71720
VOP

Download Data

Hourly Data (October 2017)
Hourly Data Report for October 28, 2017
Temp Definition
°C
Dew Point Temp Definition
°C
Rel Hum Definition
%
Wind Dir Definition
10's deg

Wind Spd Definition
km/h
Visibility Definition
km
Stn Press Definition
kPa
Hmdx Definition


Wind Chill Definition


Weather Definition


TIME
00:00 7.8 7.5 98 LegendMM LegendMM   100.44     LegendNANA
01:00 5.9 5.5 97 LegendMM LegendMM   100.44     LegendNANA
02:00 8.2 7.9 98 LegendMM LegendMM   100.39     LegendNANA
03:00 6.6 6.3 98 LegendMM LegendMM   100.36     LegendNANA
04:00 5.9 5.6 98 LegendMM LegendMM   100.32     LegendNANA
05:00 5.7 5.5 98 LegendMM LegendMM   100.26     LegendNANA
06:00 5.9 5.7 98 LegendMM LegendMM   100.26     LegendNANA
07:00 6.4 6.2 98 LegendMM LegendMM   100.25     LegendNANA
08:00 6.3 6.1 98 LegendMM LegendMM   100.22     LegendNANA
09:00 10.2 9.9 98 LegendMM LegendMM   100.20     LegendNANA
10:00 10.5 10.0 97 LegendMM LegendMM   100.23     LegendNANA
11:00 12.0 10.8 92 LegendMM LegendMM   100.17     LegendNANA
12:00 12.4 10.0 85 LegendMM LegendMM   100.10     LegendNANA
13:00 13.4 10.1 80 LegendMM LegendMM   100.08     LegendNANA
14:00 15.4 9.8 69 LegendMM LegendMM   100.02     LegendNANA
15:00 14.3 8.6 69 LegendMM LegendMM   99.97     LegendNANA
16:00 12.1 8.9 81 LegendMM LegendMM   99.94     LegendNANA
17:00 11.4 8.6 83 LegendMM LegendMM   99.92     LegendNANA
18:00 9.9 8.6 92 LegendMM LegendMM   99.92     LegendNANA
19:00 8.7 7.8 94 LegendMM LegendMM   99.92     LegendNANA
20:00 7.6 6.9 96 LegendMM LegendMM   99.92     LegendNANA
21:00 7.4 6.9 97 LegendMM LegendMM   99.96     LegendNANA
22:00 6.8 6.2 96 LegendMM LegendMM   100.00     LegendNANA
23:00 7.1 6.7 97 LegendMM LegendMM   100.04     LegendNANA

Notes on Data Quality.

Legend

  • E = Estimated
  • M = Missing
  • NA = Not Available
  • ‡ = Partner data that is not subject to review by the National Climate Archives
Date modified: